Weather History for K05U - October, 2012

Change the Weather History Date:

Sunday, October 7, 2012

  Actual Average Record
Temperature  
Mean Temperature 44 °F -  
Max Temperature 71 °F - - ()
Min Temperature 17 °F - - ()
Degree Days  
Heating Degree Days 21    
Moisture  
Dew Point -    
Average Humidity    
Maximum Humidity    
Minimum Humidity    
Precipitation  
Precipitation 0.00 in - - ()
Sea Level Pressure  
Sea Level Pressure 30.17 in    
Wind  
Wind Speed 1 mph ()    
Max Wind Speed 8 mph    
Max Gust Speed -    
Visibility 10.0 miles    
Events      
T = Trace of Precipitation, MM = Missing Value Source: Averaged Metar Reports

Daily Weather History Graph

Daily Weather History Graph

Search for Another Location

Airport or City:

Trip Planner

Search our weather history database for the weather conditions in past years. The results will help you decide how hot, cold, wet, or windy it might be!

Date:

Astronomy

Oct. 07, 2012 Rise Set
Actual Time 6:46 AM PDT 6:16 PM PDT
Civil Twilight 6:19 AM PDT 6:42 PM PDT
Nautical Twilight 5:48 AM PDT 7:14 PM PDT
Astronomical Twilight 5:17 AM PDT 7:45 PM PDT
Moon 11:32 PM PDT (10/7) 1:25 PM PDT (10/7)
Length of Visible Light 12h 23m
Length of Day
11h 29m
Waning Gibbous, 55% of the Moon is Illuminated
Oct 7
Waning Gibbous
Oct 8
Last Quarter
Oct 15
New
Oct 21
First Quarter
Oct 29
Full

Hourly Weather History & Observations

Time (PDT) Temp. Windchill Dew Point Humidity Pressure Visibility Wind Dir Wind Speed Gust Speed Precip Events Conditions
12:15 AM 28.4 °F - - N/A% 30.19 in 10.0 mi Calm Calm - N/A   Clear
12:35 AM 28.4 °F 24.6 °F - N/A% 30.19 in 10.0 mi SE 3.5 mph - N/A   Clear
12:55 AM 26.6 °F - - N/A% 30.20 in 10.0 mi Calm Calm - N/A   Clear
1:15 AM 32.0 °F 24.8 °F - N/A% 30.20 in 10.0 mi NNE 8.1 mph - N/A   Clear
1:35 AM 32.0 °F 26.4 °F - N/A% 30.20 in 10.0 mi East 5.8 mph - N/A   Clear
1:55 AM 28.4 °F - - N/A% 30.21 in 10.0 mi Calm Calm - N/A   Clear
2:15 AM 26.6 °F - - N/A% 30.21 in 10.0 mi Calm Calm - N/A   Clear
2:35 AM 26.6 °F - - N/A% 30.20 in 10.0 mi Calm Calm - N/A   Clear
2:55 AM 28.4 °F - - N/A% 30.20 in 10.0 mi Calm Calm - N/A   Clear
3:15 AM 24.8 °F - - N/A% 30.20 in 10.0 mi Calm Calm - N/A   Clear
3:35 AM 24.8 °F - - N/A% 30.20 in 10.0 mi Calm Calm - N/A   Clear
3:55 AM 26.6 °F - - N/A% 30.20 in 10.0 mi Calm Calm - N/A   Clear
4:15 AM 28.4 °F - - N/A% 30.20 in 10.0 mi Calm Calm - N/A   Clear
4:35 AM 28.4 °F - - N/A% 30.20 in 10.0 mi Calm Calm - N/A   Clear
4:55 AM 26.6 °F - - N/A% 30.21 in 10.0 mi Calm Calm - N/A   Clear
5:15 AM 23.0 °F - - N/A% 30.21 in 10.0 mi Calm Calm - N/A   Clear
5:35 AM 24.8 °F - - N/A% 30.21 in 10.0 mi Calm Calm - N/A   Clear
5:55 AM 23.0 °F - - N/A% 30.21 in 10.0 mi Calm Calm - N/A   Clear
6:15 AM 23.0 °F - - N/A% 30.21 in 10.0 mi Calm Calm - N/A   Clear
6:35 AM 17.6 °F 10.7 °F - N/A% 30.22 in 10.0 mi SSW 4.6 mph - N/A   Clear
6:55 AM 19.4 °F 12.8 °F - N/A% 30.22 in 10.0 mi SSW 4.6 mph - N/A   Clear
7:35 AM 24.8 °F - - N/A% 30.23 in 9.0 mi Calm Calm - N/A   Clear
7:55 AM 32.0 °F - - N/A% 30.24 in 10.0 mi Calm Calm - N/A   Clear
8:15 AM 35.6 °F - - N/A% 30.24 in 10.0 mi Calm Calm - N/A   Clear
8:35 AM 39.2 °F - - N/A% 30.24 in 10.0 mi Calm Calm - N/A   Clear
8:55 AM 42.8 °F 41.1 °F - N/A% 30.24 in 10.0 mi NNW 3.5 mph - N/A   Clear
9:15 AM 46.4 °F - - N/A% 30.24 in 10.0 mi Calm Calm - N/A   Clear
9:35 AM 46.4 °F 44.3 °F - N/A% 30.24 in 10.0 mi North 4.6 mph - N/A   Clear
9:55 AM 46.4 °F - - N/A% 30.23 in 10.0 mi Calm Calm - N/A   Clear
10:15 AM 48.2 °F - - N/A% 30.23 in 10.0 mi Calm Calm - N/A   Clear
10:35 AM 50.0 °F - - N/A% 30.23 in 10.0 mi Calm Calm - N/A   Clear
10:55 AM 53.6 °F - - N/A% 30.22 in 10.0 mi ENE 3.5 mph - N/A   Clear
11:15 AM 53.6 °F - - N/A% 30.22 in 10.0 mi Calm Calm - N/A   Clear
11:35 AM 55.4 °F - - N/A% 30.21 in 10.0 mi Calm Calm - N/A   Clear
11:55 AM 57.2 °F - - N/A% 30.20 in 10.0 mi NE 3.5 mph - N/A   Clear
12:35 PM 60.8 °F - - N/A% 30.19 in 10.0 mi North 4.6 mph - N/A   Clear
12:55 PM 64.4 °F - - N/A% 30.18 in 10.0 mi Calm Calm - N/A   Clear
1:15 PM 64.4 °F - - N/A% 30.16 in 10.0 mi North 4.6 mph - N/A   Clear
1:35 PM 66.2 °F - - N/A% 30.15 in 10.0 mi NNW 5.8 mph - N/A   Clear
1:55 PM 68.0 °F - - N/A% 30.15 in 10.0 mi NNE 4.6 mph - N/A   Clear
2:15 PM 68.0 °F - - N/A% 30.14 in 10.0 mi North 3.5 mph - N/A   Clear
2:35 PM 69.8 °F - - N/A% 30.13 in 10.0 mi NNW 4.6 mph - N/A   Clear
2:55 PM 69.8 °F - - N/A% 30.13 in 10.0 mi North 3.5 mph - N/A   Clear
3:15 PM 69.8 °F - - N/A% 30.12 in 10.0 mi Calm Calm - N/A   Clear
3:35 PM 69.8 °F - - N/A% 30.11 in 10.0 mi Calm Calm - N/A   Clear
3:55 PM 71.6 °F - - N/A% 30.11 in 10.0 mi NNE 5.8 mph - N/A   Clear
4:15 PM 69.8 °F - - N/A% 30.11 in 10.0 mi NNE 5.8 mph - N/A   Clear
4:35 PM 69.8 °F - - N/A% 30.10 in 10.0 mi North 6.9 mph - N/A   Clear
4:55 PM 68.0 °F - - N/A% 30.10 in 10.0 mi NNE 5.8 mph - N/A   Clear
5:15 PM 68.0 °F - - N/A% 30.10 in 10.0 mi North 4.6 mph - N/A   Clear
5:35 PM 66.2 °F - - N/A% 30.09 in 10.0 mi Calm Calm - N/A   Clear
5:55 PM 66.2 °F - - N/A% 30.09 in 10.0 mi Calm Calm - N/A   Clear
6:15 PM 60.8 °F - - N/A% 30.10 in 10.0 mi Calm Calm - N/A   Clear
6:35 PM 55.4 °F - - N/A% 30.10 in 10.0 mi Calm Calm - N/A   Clear
6:55 PM 53.6 °F - - N/A% 30.11 in 10.0 mi Calm Calm - N/A   Clear
7:15 PM 48.2 °F - - N/A% 30.11 in 10.0 mi Calm Calm - N/A   Clear
7:35 PM 46.4 °F - - N/A% 30.12 in 10.0 mi Calm Calm - N/A   Clear
7:55 PM 48.2 °F - - N/A% 30.12 in 10.0 mi Calm Calm - N/A   Clear
8:15 PM 44.6 °F - - N/A% 30.12 in 10.0 mi Calm Calm - N/A   Clear
8:35 PM 42.8 °F - - N/A% 30.12 in 10.0 mi Calm Calm - N/A   Clear
8:55 PM 41.0 °F - - N/A% 30.13 in 10.0 mi Calm Calm - N/A   Clear
9:15 PM 41.0 °F - - N/A% 30.13 in 10.0 mi Calm Calm - N/A   Clear
9:35 PM 39.2 °F - - N/A% 30.13 in 10.0 mi Calm Calm - N/A   Clear
9:55 PM 39.2 °F - - N/A% 30.13 in 10.0 mi Calm Calm - N/A   Clear
10:15 PM 39.2 °F 35.9 °F - N/A% 30.13 in 10.0 mi South 4.6 mph - N/A   Clear
10:35 PM 35.6 °F - - N/A% 30.13 in 10.0 mi Calm Calm - N/A   Clear
10:55 PM 35.6 °F 32.8 °F - N/A% 30.13 in 10.0 mi SSW 3.5 mph - N/A   Clear
11:15 PM 35.6 °F - - N/A% 30.13 in 10.0 mi Calm Calm - N/A   Clear
11:35 PM 37.4 °F - - N/A% 30.13 in 10.0 mi Calm Calm - N/A   Clear
11:55 PM 37.4 °F - - N/A% 30.13 in 10.0 mi Calm Calm - N/A   Clear